C/2020 F5 ( MASTER )

Japanese version
Home page
Updated on May 24, 2020

---------------------------------------------------------------------

* Profile

Discovery Date March 28, 2020
Magnitude 15.8 mag
Discoverer Mobile Astronomical System of the Telescope-Robots (MASTER) auto-detection system near San Juan, Argentina

* Pictures

* Orbital Elements

Epoch 2021 Mar. 7.0 TT = JDT 2459280.5
T 2021 Mar. 23.99262 TT                                 Rudenko
q   4.3268185            (2000.0)            P               Q
z  -0.0005547      Peri.  311.03147     +0.57142167     +0.81060918
 +/-0.0000422      Node   350.61170     -0.28592066     +0.05042159
e   1.0024000      Incl.   51.70413     -0.76923771     +0.58341274
From 106 observations 2020 Mar. 16-May 18, mean residual 0".5.

* Finding Charts

* Magnitudes Graph

        m1 = 5.0 + 5 log d + 10.0 log r

---------------------------------------------------------------------

The orbital elements are published on M.P.E.C. 2020-K117.
The charts are made with StellaNavigator Ver.10 (AstroArts).
The magnitudes graphs are made with Comet for Windows.

---------------------------------------------------------------------

Copyright(C) Seiichi Yoshida (comet@aerith.net). All rights reserved.